,,,PA_Meas_PMT16A,,PR_Meas_QMR101_102,,RH_Meas_QMH101,,SR_Meas_QMS101,,TA_Meas_QMH101,,GenWind,,GenWind,
date,time,status,PA,status,PR,status,RH,status,SR,status,TA,status,DirAvg,status,SpdAvg,
2011-05-27, 00:00:04,VALID,1003.49,VALID,0,INVALID,163.67,VALID,0,VALID,24.8308,VALID,6,VALID,0,
2011-05-27, 00:01:04,VALID,1003.47,VALID,0,INVALID,163.693,VALID,0.100563,VALID,24.8095,VALID,6,VALID,0.15625,
2011-05-27, 00:02:04,VALID,1003.44,VALID,0,INVALID,163.693,VALID,0.100563,VALID,24.8289,VALID,6,VALID,0.212109,
2011-05-27, 00:03:04,VALID,1003.46,VALID,0,INVALID,163.662,VALID,0,VALID,24.8289,VALID,6,VALID,0,
2011-05-27, 00:04:04,VALID,1003.44,VALID,0,INVALID,163.678,VALID,0.100563,VALID,24.8892,VALID,6,VALID,0.276172,
2011-05-27, 00:05:04,VALID,1003.47,VALID,0,INVALID,163.662,VALID,0,VALID,24.9068,VALID,10,VALID,0.315625,
2011-05-27, 00:06:04,VALID,1003.47,VALID,0,INVALID,163.693,VALID,0,VALID,24.9866,VALID,10,VALID,0.611328,
2011-05-27, 00:07:04,VALID,1003.52,VALID,0,INVALID,163.67,VALID,0,VALID,24.9671,VALID,31,VALID,0.7,
2011-05-27, 00:08:04,VALID,1003.51,VALID,0,INVALID,163.662,VALID,0,VALID,24.9671,VALID,32,VALID,0.419922,
2011-05-27, 00:09:04,VALID,1003.52,VALID,0,INVALID,163.655,VALID,0,VALID,24.9087,VALID,32,VALID,0.409766,
2011-05-27, 00:10:04,VALID,1003.54,VALID,0,INVALID,163.693,VALID,0,VALID,24.9282,VALID,33,VALID,0.710938,
2011-05-27, 00:11:04,VALID,1003.55,VALID,0,INVALID,163.685,VALID,0,VALID,24.9476,VALID,28,VALID,0.594922,
2011-05-27, 00:12:04,VALID,1003.52,VALID,0,INVALID,163.662,VALID,0.100563,VALID,24.9671,VALID,16,VALID,0.973828,
2011-05-27, 00:13:04,VALID,1003.53,VALID,0,INVALID,163.639,VALID,0,VALID,25.0839,VALID,20,VALID,0.943359,
2011-05-27, 00:14:04,VALID,1003.5,VALID,0,INVALID,163.639,VALID,0,VALID,25.2007,VALID,49,VALID,0.602734,
2011-05-27, 00:15:04,VALID,1003.48,VALID,0,INVALID,163.632,VALID,0,VALID,25.376,VALID,1,VALID,0.735937,
2011-05-27, 00:16:04,VALID,1003.45,VALID,0,INVALID,163.609,VALID,0.100563,VALID,25.5104,VALID,110,VALID,0.392188,
2011-05-27, 00:17:04,VALID,1003.41,VALID,0,INVALID,163.617,VALID,0,VALID,25.6292,VALID,44,VALID,0.614062,
2011-05-27, 00:18:04,VALID,1003.36,VALID,0,INVALID,163.609,VALID,0,VALID,25.7285,VALID,25,VALID,0.264453,
2011-05-27, 00:19:04,VALID,1003.34,VALID,0,INVALID,163.647,VALID,0.100563,VALID,25.7655,VALID,34,VALID,0.243359,
2011-05-27, 00:20:04,VALID,1003.31,VALID,0,INVALID,163.601,VALID,0,VALID,25.785,VALID,22,VALID,0,
2011-05-27, 00:21:04,VALID,1003.31,VALID,0,INVALID,163.601,VALID,0.100563,VALID,25.8044,VALID,68,VALID,0.622656,
2011-05-27, 00:22:04,VALID,1003.28,VALID,0,INVALID,163.624,VALID,0,VALID,25.8025,VALID,39,VALID,0.317187,
2011-05-27, 00:23:04,VALID,1003.26,VALID,0,INVALID,163.609,VALID,0.100563,VALID,25.8434,VALID,39,VALID,0.263281,
2011-05-27, 00:24:04,VALID,1003.23,VALID,0,INVALID,163.601,VALID,0,VALID,25.8239,VALID,39,VALID,0.355859,
2011-05-27, 00:25:04,VALID,1003.21,VALID,0,INVALID,163.624,VALID,0,VALID,25.8259,VALID,342,VALID,0.484375,
2011-05-27, 00:26:04,VALID,1003.2,VALID,0,INVALID,163.594,VALID,0,VALID,25.8044,VALID,343,VALID,0.453516,
2011-05-27, 00:27:04,VALID,1003.17,VALID,0,INVALID,163.617,VALID,0,VALID,25.7655,VALID,2,VALID,0.747266,
2011-05-27, 00:28:04,VALID,1003.13,VALID,0,INVALID,163.617,VALID,0,VALID,25.7655,VALID,4,VALID,0.807813,
2011-05-27, 00:29:04,VALID,1003.1,VALID,0,INVALID,163.632,VALID,0,VALID,25.7265,VALID,360,VALID,0.642578,
2011-05-27, 00:30:04,VALID,1003.05,VALID,0,INVALID,163.639,VALID,0,VALID,25.7071,VALID,350,VALID,1.43047,
2011-05-27, 00:31:04,VALID,1003,VALID,0,INVALID,163.617,VALID,0.100563,VALID,25.6486,VALID,354,VALID,0.94375,
2011-05-27, 00:32:04,VALID,1002.97,VALID,0,INVALID,163.632,VALID,0,VALID,25.6097,VALID,356,VALID,0.631641,
2011-05-27, 00:33:04,VALID,1002.93,VALID,0,INVALID,163.601,VALID,0,VALID,25.5513,VALID,356,VALID,0.544141,
2011-05-27, 00:34:04,VALID,1002.93,VALID,0,INVALID,163.639,VALID,0,VALID,25.5123,VALID,348,VALID,0.460938,
2011-05-27, 00:35:04,VALID,1002.94,VALID,0,INVALID,163.609,VALID,0,VALID,25.4948,VALID,348,VALID,0.468359,
2011-05-27, 00:36:04,VALID,1002.91,VALID,0,INVALID,163.632,VALID,0,VALID,25.4558,VALID,348,VALID,0.399219,
2011-05-27, 00:37:04,VALID,1002.87,VALID,0,INVALID,163.639,VALID,0,VALID,25.3955,VALID,348,VALID,0.432031,
2011-05-27, 00:38:04,VALID,1002.9,VALID,0,INVALID,163.617,VALID,0,VALID,25.3779,VALID,348,VALID,0.383594,
2011-05-27, 00:39:04,VALID,1002.88,VALID,0,INVALID,163.647,VALID,0,VALID,25.3584,VALID,348,VALID,0.471094,
2011-05-27, 00:40:04,VALID,1002.88,VALID,0,INVALID,163.655,VALID,0,VALID,25.3176,VALID,348,VALID,0.38125,
2011-05-27, 00:41:04,VALID,1002.89,VALID,0,INVALID,163.647,VALID,0,VALID,25.2786,VALID,348,VALID,0.696094,
2011-05-27, 00:42:04,VALID,1002.87,VALID,0,INVALID,163.639,VALID,0.100563,VALID,25.2592,VALID,348,VALID,0.371094,
2011-05-27, 00:43:04,VALID,1002.9,VALID,0,INVALID,163.662,VALID,0,VALID,25.2202,VALID,349,VALID,0.559766,
2011-05-27, 00:44:04,VALID,1002.9,VALID,0,INVALID,163.639,VALID,0,VALID,25.1813,VALID,349,VALID,0.534375,
2011-05-27, 00:45:04,VALID,1002.92,VALID,0,INVALID,163.67,VALID,0,VALID,25.1618,VALID,349,VALID,0.423047,
2011-05-27, 00:46:04,VALID,1002.94,VALID,0,INVALID,163.655,VALID,0,VALID,25.1618,VALID,349,VALID,0.228125,
2011-05-27, 00:47:04,VALID,1002.93,VALID,0,INVALID,163.662,VALID,0,VALID,25.1618,VALID,349,VALID,0.337891,
2011-05-27, 00:48:04,VALID,1002.93,VALID,0,INVALID,163.647,VALID,0,VALID,25.1637,VALID,348,VALID,0.0199219,
2011-05-27, 00:49:04,VALID,1002.99,VALID,0,INVALID,163.632,VALID,0,VALID,25.1423,VALID,345,VALID,0.450781,
2011-05-27, 00:50:04,VALID,1003.01,VALID,0,INVALID,163.655,VALID,0,VALID,25.1229,VALID,347,VALID,0.457812,
2011-05-27, 00:51:04,VALID,1003.03,VALID,0,INVALID,163.662,VALID,0,VALID,25.1034,VALID,348,VALID,0.948828,
2011-05-27, 00:52:04,VALID,1003.08,VALID,0,INVALID,163.67,VALID,0,VALID,25.1229,VALID,351,VALID,1.40156,
2011-05-27, 00:53:04,VALID,1003.08,VALID,0,INVALID,163.67,VALID,0,VALID,25.1423,VALID,350,VALID,1.26367,
2011-05-27, 00:54:04,VALID,1003.07,VALID,0,INVALID,163.655,VALID,0,VALID,25.1832,VALID,349,VALID,0.85,
2011-05-27, 00:55:04,VALID,1003.07,VALID,0,INVALID,163.647,VALID,0,VALID,25.2007,VALID,347,VALID,0.852344,
2011-05-27, 00:56:04,VALID,1003.09,VALID,0,INVALID,163.632,VALID,0,VALID,25.2611,VALID,350,VALID,0.482812,
2011-05-27, 00:57:04,VALID,1003.08,VALID,0,INVALID,163.662,VALID,0,VALID,25.2202,VALID,358,VALID,0.685547,
2011-05-27, 00:58:04,VALID,1003.09,VALID,0,INVALID,163.647,VALID,0,VALID,25.2611,VALID,356,VALID,0.755859,
2011-05-27, 00:59:04,VALID,1003.08,VALID,0,INVALID,163.662,VALID,0,VALID,25.2786,VALID,352,VALID,1.53906,
2011-05-27, 01:00:04,VALID,1003.06,VALID,0,INVALID,163.655,VALID,0,VALID,25.339,VALID,7,VALID,1.21094,
2011-05-27, 01:01:04,VALID,1003.03,VALID,0,INVALID,163.647,VALID,0,VALID,25.4169,VALID,360,VALID,1.32773,
2011-05-27, 01:02:04,VALID,1003,VALID,0,INVALID,163.639,VALID,0,VALID,25.4344,VALID,360,VALID,1.33398,
2011-05-27, 01:03:04,VALID,1003.01,VALID,0,INVALID,163.624,VALID,0,VALID,25.4928,VALID,359,VALID,1.09063,
2011-05-27, 01:04:04,VALID,1003.02,VALID,0,INVALID,163.594,VALID,0,VALID,25.5123,VALID,26,VALID,1.15273,
2011-05-27, 01:05:04,VALID,1002.99,VALID,0,INVALID,163.609,VALID,0,VALID,25.5513,VALID,38,VALID,0.960547,
2011-05-27, 01:06:04,VALID,1002.99,VALID,0,INVALID,163.639,VALID,0,VALID,25.5727,VALID,10,VALID,1.16094,
2011-05-27, 01:07:04,VALID,1002.99,VALID,0,INVALID,163.647,VALID,0,VALID,25.5707,VALID,17,VALID,0.684375,
2011-05-27, 01:08:04,VALID,1002.99,VALID,0,INVALID,163.624,VALID,0,VALID,25.5902,VALID,17,VALID,1.09258,
2011-05-27, 01:09:04,VALID,1002.99,VALID,0,INVALID,163.617,VALID,0,VALID,25.6097,VALID,10,VALID,1.00312,
2011-05-27, 01:10:04,VALID,1002.99,VALID,0,INVALID,163.601,VALID,0,VALID,25.6292,VALID,13,VALID,0.754687,
2011-05-27, 01:11:04,VALID,1002.99,VALID,0,INVALID,163.617,VALID,0,VALID,25.6681,VALID,45,VALID,0.777344,
2011-05-27, 01:12:04,VALID,1002.98,VALID,0,INVALID,163.601,VALID,0,VALID,25.6681,VALID,31,VALID,0.934375,
2011-05-27, 01:13:04,VALID,1002.99,VALID,0,INVALID,163.609,VALID,0,VALID,25.67,VALID,40,VALID,0.316016,
2011-05-27, 01:14:04,VALID,1002.97,VALID,0,INVALID,163.617,VALID,0,VALID,25.67,VALID,3,VALID,0.830469,
2011-05-27, 01:15:04,VALID,1002.99,VALID,0,INVALID,163.609,VALID,0,VALID,25.6097,VALID,32,VALID,0.472266,
2011-05-27, 01:16:04,VALID,1002.94,VALID,0,INVALID,163.601,VALID,0,VALID,25.5941,VALID,30,VALID,0.658594,
2011-05-27, 01:17:04,VALID,1002.95,VALID,0,INVALID,163.647,VALID,0,VALID,25.5513,VALID,51,VALID,0.480078,
2011-05-27, 01:18:04,VALID,1002.96,VALID,0,INVALID,163.639,VALID,0,VALID,25.5727,VALID,53,VALID,0.389062,
2011-05-27, 01:19:04,VALID,1002.91,VALID,0,INVALID,163.632,VALID,0,VALID,25.5318,VALID,30,VALID,0.742578,
2011-05-27, 01:20:04,VALID,1002.93,VALID,0,INVALID,163.609,VALID,0,VALID,25.5142,VALID,29,VALID,0.395703,
2011-05-27, 01:21:04,VALID,1002.92,VALID,0,INVALID,163.632,VALID,0,VALID,25.4753,VALID,29,VALID,0.308984,
2011-05-27, 01:22:04,VALID,1002.92,VALID,0,INVALID,163.639,VALID,0,VALID,25.4149,VALID,29,VALID,0,
2011-05-27, 01:23:04,VALID,1002.88,VALID,0,INVALID,163.647,VALID,0,VALID,25.3565,VALID,29,VALID,0.148047,
2011-05-27, 01:24:04,VALID,1002.89,VALID,0,INVALID,163.639,VALID,0,VALID,25.2981,VALID,29,VALID,0.175391,
2011-05-27, 01:25:04,VALID,1002.86,VALID,0,INVALID,163.647,VALID,0,VALID,25.2611,VALID,29,VALID,0.197656,
2011-05-27, 01:26:04,VALID,1002.83,VALID,0,INVALID,163.662,VALID,0,VALID,25.2007,VALID,29,VALID,0.248828,
2011-05-27, 01:27:04,VALID,1002.83,VALID,0,INVALID,163.632,VALID,0,VALID,25.1442,VALID,29,VALID,0.185547,
2011-05-27, 01:28:04,VALID,1002.83,VALID,0,INVALID,163.67,VALID,0,VALID,25.0625,VALID,29,VALID,0.295312,
2011-05-27, 01:29:04,VALID,1002.82,VALID,0,INVALID,163.67,VALID,0,VALID,25.0644,VALID,29,VALID,0.401172,
2011-05-27, 01:30:04,VALID,1002.82,VALID,0,INVALID,163.655,VALID,0,VALID,25.0431,VALID,5,VALID,0.569141,
2011-05-27, 01:31:04,VALID,1002.85,VALID,0,INVALID,163.647,VALID,0,VALID,25.045,VALID,5,VALID,0.388672,
2011-05-27, 01:32:04,VALID,1002.82,VALID,0,INVALID,163.647,VALID,0,VALID,25.0469,VALID,5,VALID,0.471484,
2011-05-27, 01:33:04,VALID,1002.84,VALID,0,INVALID,163.693,VALID,0,VALID,25.006,VALID,6,VALID,0.594141,
2011-05-27, 01:34:04,VALID,1002.82,VALID,0,INVALID,163.632,VALID,0,VALID,25.0255,VALID,5,VALID,0.398438,
2011-05-27, 01:35:04,VALID,1002.81,VALID,0,INVALID,163.624,VALID,0,VALID,25.0469,VALID,5,VALID,0.3,
2011-05-27, 01:36:04,VALID,1002.79,VALID,0,INVALID,163.678,VALID,0,VALID,25.0469,VALID,5,VALID,0.515625,
2011-05-27, 01:37:04,VALID,1002.79,VALID,0,INVALID,163.67,VALID,0,VALID,25.0255,VALID,5,VALID,0.615234,
2011-05-27, 01:38:04,VALID,1002.77,VALID,0,INVALID,163.655,VALID,0,VALID,25.0644,VALID,354,VALID,0.715234,
2011-05-27, 01:39:04,VALID,1002.76,VALID,0,INVALID,163.639,VALID,0,VALID,25.1034,VALID,1,VALID,0.880078,
2011-05-27, 01:40:04,VALID,1002.75,VALID,0,INVALID,163.655,VALID,0,VALID,25.1637,VALID,346,VALID,0.751172,
2011-05-27, 01:41:04,VALID,1002.75,VALID,0,INVALID,163.647,VALID,0,VALID,25.1813,VALID,19,VALID,0.563281,
2011-05-27, 01:42:04,VALID,1002.73,VALID,0,INVALID,163.624,VALID,0,VALID,25.1794,VALID,8,VALID,0.454688,
2011-05-27, 01:43:04,VALID,1002.74,VALID,0,INVALID,163.647,VALID,0,VALID,25.2007,VALID,12,VALID,1.12891,
2011-05-27, 01:44:04,VALID,1002.75,VALID,0,INVALID,163.624,VALID,0,VALID,25.2027,VALID,33,VALID,0.571484,
2011-05-27, 01:45:04,VALID,1002.74,VALID,0,INVALID,163.655,VALID,0,VALID,25.2221,VALID,16,VALID,0.988672,
2011-05-27, 01:46:04,VALID,1002.73,VALID,0,INVALID,163.624,VALID,0,VALID,25.2416,VALID,12,VALID,1.2918,
2011-05-27, 01:47:04,VALID,1002.74,VALID,0,INVALID,163.632,VALID,0,VALID,25.3565,VALID,20,VALID,0.635938,
2011-05-27, 01:48:04,VALID,1002.74,VALID,0,INVALID,163.655,VALID,0,VALID,25.4344,VALID,16,VALID,0.287891,
2011-05-27, 01:49:04,VALID,1002.73,VALID,0,INVALID,163.609,VALID,0,VALID,25.4734,VALID,31,VALID,0.567187,
2011-05-27, 01:50:04,VALID,1002.72,VALID,0,INVALID,163.632,VALID,0,VALID,25.5123,VALID,26,VALID,0.939844,
2011-05-27, 01:51:04,VALID,1002.71,VALID,0,INVALID,163.639,VALID,0,VALID,25.5727,VALID,16,VALID,0.719141,
2011-05-27, 01:52:04,VALID,1002.7,VALID,0,INVALID,163.617,VALID,0,VALID,25.5707,VALID,15,VALID,0.98125,
2011-05-27, 01:53:04,VALID,1002.73,VALID,0,INVALID,163.609,VALID,0,VALID,25.5727,VALID,18,VALID,0.90625,
2011-05-27, 01:54:04,VALID,1002.72,VALID,0,INVALID,163.624,VALID,0,VALID,25.5727,VALID,21,VALID,0.307031,
2011-05-27, 01:55:04,VALID,1002.68,VALID,0,INVALID,163.639,VALID,0,VALID,25.5337,VALID,5,VALID,0.635547,
2011-05-27, 01:56:04,VALID,1002.66,VALID,0,INVALID,163.655,VALID,0,VALID,25.4753,VALID,13,VALID,0.802344,
2011-05-27, 01:57:04,VALID,1002.66,VALID,0,INVALID,163.67,VALID,0,VALID,25.4344,VALID,36,VALID,0.864062,
2011-05-27, 01:58:04,VALID,1002.63,VALID,0,INVALID,163.639,VALID,0,VALID,25.4149,VALID,36,VALID,0.876953,
2011-05-27, 01:59:04,VALID,1002.62,VALID,0,INVALID,163.632,VALID,0,VALID,25.376,VALID,51,VALID,0.772266,
2011-05-27, 02:00:04,VALID,1002.61,VALID,0,INVALID,163.655,VALID,0,VALID,25.3974,VALID,65,VALID,0.2,
2011-05-27, 02:01:04,VALID,1002.59,VALID,0,INVALID,163.617,VALID,0,VALID,25.339,VALID,61,VALID,0.265234,
2011-05-27, 02:02:04,VALID,1002.59,VALID,0,INVALID,163.647,VALID,0,VALID,25.3584,VALID,66,VALID,0.103906,
2011-05-27, 02:03:04,VALID,1002.58,VALID,0,INVALID,163.647,VALID,0,VALID,25.3176,VALID,66,VALID,0.183984,
2011-05-27, 02:04:04,VALID,1002.57,VALID,0,INVALID,163.647,VALID,0,VALID,25.3195,VALID,66,VALID,0.0792969,
2011-05-27, 02:05:04,VALID,1002.59,VALID,0,INVALID,163.662,VALID,0,VALID,25.2786,VALID,37,VALID,0.551562,
2011-05-27, 02:06:04,VALID,1002.55,VALID,0,INVALID,163.609,VALID,0,VALID,25.2806,VALID,38,VALID,0.198047,
2011-05-27, 02:07:04,VALID,1002.57,VALID,0,INVALID,163.662,VALID,0,VALID,25.2806,VALID,61,VALID,0.43125,
2011-05-27, 02:08:04,VALID,1002.57,VALID,0,INVALID,163.639,VALID,0,VALID,25.2806,VALID,61,VALID,0.279687,
2011-05-27, 02:09:04,VALID,1002.55,VALID,0,INVALID,163.609,VALID,0,VALID,25.2806,VALID,71,VALID,0.528516,
2011-05-27, 02:10:04,VALID,1002.57,VALID,0,INVALID,163.647,VALID,0,VALID,25.2806,VALID,71,VALID,0.365234,
2011-05-27, 02:11:04,VALID,1002.58,VALID,0,INVALID,163.624,VALID,0,VALID,25.2397,VALID,71,VALID,0.337109,
2011-05-27, 02:12:04,VALID,1002.59,VALID,0,INVALID,163.632,VALID,0,VALID,25.2416,VALID,36,VALID,0.805469,
2011-05-27, 02:13:04,VALID,1002.58,VALID,0,INVALID,163.632,VALID,0,VALID,25.2007,VALID,25,VALID,0.666797,
2011-05-27, 02:14:04,VALID,1002.62,VALID,0,INVALID,163.639,VALID,0,VALID,25.2221,VALID,20,VALID,1.00273,
2011-05-27, 02:15:04,VALID,1002.64,VALID,0,INVALID,163.624,VALID,0,VALID,25.2007,VALID,24,VALID,0.840234,
2011-05-27, 02:16:04,VALID,1002.66,VALID,0,INVALID,163.617,VALID,0,VALID,25.2611,VALID,22,VALID,0.932031,
2011-05-27, 02:17:04,VALID,1002.68,VALID,0,INVALID,163.609,VALID,0,VALID,25.3,VALID,16,VALID,0.926172,
2011-05-27, 02:18:04,VALID,1002.71,VALID,0,INVALID,163.632,VALID,0,VALID,25.3195,VALID,28,VALID,1.03594,
2011-05-27, 02:19:04,VALID,1002.74,VALID,0,INVALID,163.639,VALID,0,VALID,25.3974,VALID,23,VALID,0.81875,
2011-05-27, 02:20:04,VALID,1002.8,VALID,0,INVALID,163.624,VALID,0,VALID,25.4383,VALID,25,VALID,0.44375,
2011-05-27, 02:21:04,VALID,1002.8,VALID,0,INVALID,163.624,VALID,0,VALID,25.4169,VALID,35,VALID,0.788281,
2011-05-27, 02:22:04,VALID,1002.8,VALID,0,INVALID,163.609,VALID,0,VALID,25.4753,VALID,25,VALID,0.661719,
2011-05-27, 02:23:04,VALID,1002.8,VALID,0,INVALID,163.624,VALID,0,VALID,25.4539,VALID,21,VALID,0.643359,
2011-05-27, 02:24:04,VALID,1002.77,VALID,0,INVALID,163.632,VALID,0,VALID,25.5142,VALID,30,VALID,0.718359,
2011-05-27, 02:25:04,VALID,1002.76,VALID,0,INVALID,163.639,VALID,0,VALID,25.5727,VALID,39,VALID,0.844531,
2011-05-27, 02:26:04,VALID,1002.74,VALID,0,INVALID,163.609,VALID,0,VALID,25.6116,VALID,59,VALID,1.05156,
2011-05-27, 02:27:04,VALID,1002.76,VALID,0,INVALID,163.624,VALID,0,VALID,25.6681,VALID,36,VALID,1.11367,
2011-05-27, 02:28:04,VALID,1002.71,VALID,0,INVALID,163.617,VALID,0,VALID,25.7285,VALID,27,VALID,0.355469,
2011-05-27, 02:29:04,VALID,1002.71,VALID,0,INVALID,163.624,VALID,0,VALID,25.709,VALID,15,VALID,0.682422,
2011-05-27, 02:30:04,VALID,1002.68,VALID,0,INVALID,163.594,VALID,0,VALID,25.709,VALID,36,VALID,0.28125,
2011-05-27, 02:31:04,VALID,1002.66,VALID,0,INVALID,163.609,VALID,0,VALID,25.6895,VALID,36,VALID,0.172656,
2011-05-27, 02:32:04,VALID,1002.6,VALID,0,INVALID,163.601,VALID,0,VALID,25.67,VALID,36,VALID,0.314063,
2011-05-27, 02:33:04,VALID,1002.62,VALID,0,INVALID,163.609,VALID,0,VALID,25.6097,VALID,42,VALID,0.374219,
2011-05-27, 02:34:04,VALID,1002.56,VALID,0,INVALID,163.609,VALID,0,VALID,25.6311,VALID,10,VALID,0.903516,
2011-05-27, 02:35:04,VALID,1002.54,VALID,0,INVALID,163.617,VALID,0,VALID,25.6097,VALID,10,VALID,0.477734,
2011-05-27, 02:36:04,VALID,1002.55,VALID,0,INVALID,163.617,VALID,0,VALID,25.5902,VALID,28,VALID,0.682031,
2011-05-27, 02:37:04,VALID,1002.55,VALID,0,INVALID,163.624,VALID,0,VALID,25.6116,VALID,358,VALID,0.708594,
2011-05-27, 02:38:04,VALID,1002.55,VALID,0,INVALID,163.609,VALID,0,VALID,25.5941,VALID,353,VALID,0.55625,
2011-05-27, 02:39:04,VALID,1002.55,VALID,0,INVALID,163.601,VALID,0,VALID,25.5513,VALID,5,VALID,0.581641,
2011-05-27, 02:40:04,VALID,1002.54,VALID,0,INVALID,163.617,VALID,0,VALID,25.5337,VALID,346,VALID,1.00977,
2011-05-27, 02:41:04,VALID,1002.56,VALID,0,INVALID,163.609,VALID,0,VALID,25.4539,VALID,324,VALID,0.878125,
2011-05-27, 02:42:04,VALID,1002.6,VALID,0,INVALID,163.662,VALID,0,VALID,25.4363,VALID,354,VALID,1.65234,
2011-05-27, 02:43:04,VALID,1002.6,VALID,0,INVALID,163.639,VALID,0,VALID,25.3779,VALID,348,VALID,1.9418,
2011-05-27, 02:44:04,VALID,1002.59,VALID,0,INVALID,163.632,VALID,0,VALID,25.3176,VALID,351,VALID,1.55625,
2011-05-27, 02:45:04,VALID,1002.6,VALID,0,INVALID,163.601,VALID,0,VALID,25.2378,VALID,349,VALID,1.26641,
2011-05-27, 02:46:04,VALID,1002.57,VALID,0,INVALID,163.601,VALID,0,VALID,25.2611,VALID,352,VALID,1.86367,
2011-05-27, 02:47:04,VALID,1002.59,VALID,0,INVALID,163.632,VALID,0,VALID,25.2183,VALID,351,VALID,1.42813,
2011-05-27, 02:48:04,VALID,1002.56,VALID,0,INVALID,163.632,VALID,0,VALID,25.2397,VALID,352,VALID,1.23438,
2011-05-27, 02:49:04,VALID,1002.54,VALID,0,INVALID,163.662,VALID,0,VALID,25.2007,VALID,1,VALID,0.847266,
2011-05-27, 02:50:04,VALID,1002.49,VALID,0,INVALID,163.655,VALID,0,VALID,25.1404,VALID,354,VALID,1.6793,
2011-05-27, 02:51:04,VALID,1002.47,VALID,0,INVALID,163.647,VALID,0,VALID,25.1423,VALID,16,VALID,0.949609,
2011-05-27, 02:52:04,VALID,1002.45,VALID,0,INVALID,163.617,VALID,0,VALID,25.1034,VALID,9,VALID,1.62109,
2011-05-27, 02:53:04,VALID,1002.42,VALID,0,INVALID,163.617,VALID,0,VALID,25.0839,VALID,359,VALID,1.28086,
2011-05-27, 02:54:04,VALID,1002.4,VALID,0,INVALID,163.632,VALID,0,VALID,25.0431,VALID,352,VALID,1.51602,
2011-05-27, 02:55:04,VALID,1002.42,VALID,0,INVALID,163.655,VALID,0,VALID,25.0644,VALID,354,VALID,1.91367,
2011-05-27, 02:56:04,VALID,1002.4,VALID,0,INVALID,163.617,VALID,0,VALID,25.1053,VALID,355,VALID,2.07617,
2011-05-27, 02:57:04,VALID,1002.39,VALID,0,INVALID,163.655,VALID,0,VALID,25.1034,VALID,4,VALID,1.19258,
2011-05-27, 02:58:04,VALID,1002.41,VALID,0,INVALID,163.662,VALID,0.100563,VALID,25.1404,VALID,4,VALID,1.63711,
2011-05-27, 02:59:04,VALID,1002.39,VALID,0,INVALID,163.647,VALID,0,VALID,25.2027,VALID,355,VALID,1.71289,
2011-05-27, 03:00:04,VALID,1002.42,VALID,0,INVALID,163.67,VALID,0,VALID,25.1618,VALID,358,VALID,1.41523,
2011-05-27, 03:01:04,VALID,1002.4,VALID,0,INVALID,163.639,VALID,0,VALID,25.1229,VALID,357,VALID,1.61836,
2011-05-27, 03:02:04,VALID,1002.42,VALID,0,INVALID,163.685,VALID,0,VALID,25.1034,VALID,1,VALID,1.1918,
2011-05-27, 03:03:04,VALID,1002.41,VALID,0,INVALID,163.647,VALID,0,VALID,25.1053,VALID,349,VALID,1.37891,
2011-05-27, 03:04:04,VALID,1002.37,VALID,0,INVALID,163.662,VALID,0,VALID,25.0644,VALID,16,VALID,1.11211,
2011-05-27, 03:05:04,VALID,1002.38,VALID,0,INVALID,163.67,VALID,0,VALID,25.1053,VALID,6,VALID,0.757813,
2011-05-27, 03:06:04,VALID,1002.36,VALID,0,INVALID,163.662,VALID,0,VALID,25.1053,VALID,23,VALID,1.16406,
2011-05-27, 03:07:04,VALID,1002.34,VALID,0,INVALID,163.639,VALID,0,VALID,25.1034,VALID,6,VALID,0.807422,
2011-05-27, 03:08:04,VALID,1002.31,VALID,0,INVALID,163.693,VALID,0,VALID,25.1034,VALID,7,VALID,1.26914,
2011-05-27, 03:09:04,VALID,1002.28,VALID,0,INVALID,163.647,VALID,0,VALID,25.1229,VALID,4,VALID,1.26719,
2011-05-27, 03:10:04,VALID,1002.31,VALID,0,INVALID,163.693,VALID,0,VALID,25.1442,VALID,2,VALID,1.14961,
2011-05-27, 03:11:04,VALID,1002.31,VALID,0,INVALID,163.655,VALID,0,VALID,25.1229,VALID,14,VALID,1.26055,
2011-05-27, 03:12:04,VALID,1002.35,VALID,0,INVALID,163.67,VALID,0,VALID,25.1229,VALID,360,VALID,1.07891,
2011-05-27, 03:13:04,VALID,1002.35,VALID,0,INVALID,163.662,VALID,0,VALID,25.1442,VALID,353,VALID,1.23477,
2011-05-27, 03:14:04,VALID,1002.4,VALID,0,INVALID,163.647,VALID,0.100563,VALID,25.1034,VALID,359,VALID,1.66133,
2011-05-27, 03:15:04,VALID,1002.41,VALID,0,INVALID,163.639,VALID,0,VALID,25.0839,VALID,359,VALID,1.86055,
2011-05-27, 03:16:04,VALID,1002.46,VALID,0,INVALID,163.685,VALID,0,VALID,25.1053,VALID,355,VALID,1.56797,
2011-05-27, 03:17:04,VALID,1002.46,VALID,0,INVALID,163.701,VALID,0,VALID,25.0644,VALID,3,VALID,1.59922,
2011-05-27, 03:18:04,VALID,1002.48,VALID,0,INVALID,163.647,VALID,0,VALID,25.0469,VALID,2,VALID,1.94258,
2011-05-27, 03:19:04,VALID,1002.43,VALID,0,INVALID,163.639,VALID,0,VALID,25.006,VALID,8,VALID,1.45469,
2011-05-27, 03:20:04,VALID,1002.43,VALID,0,INVALID,163.662,VALID,0,VALID,24.9671,VALID,5,VALID,1.61563,
2011-05-27, 03:21:04,VALID,1002.43,VALID,0,INVALID,163.655,VALID,0,VALID,24.9671,VALID,10,VALID,1.59336,
2011-05-27, 03:22:04,VALID,1002.44,VALID,0,INVALID,163.67,VALID,0,VALID,24.9476,VALID,13,VALID,1.42422,
2011-05-27, 03:23:04,VALID,1002.42,VALID,0,INVALID,163.67,VALID,0,VALID,24.969,VALID,1,VALID,1.51758,
2011-05-27, 03:24:04,VALID,1002.41,VALID,0,INVALID,163.685,VALID,0,VALID,24.9671,VALID,6,VALID,1.63281,
2011-05-27, 03:25:04,VALID,1002.46,VALID,0,INVALID,163.693,VALID,0,VALID,24.9866,VALID,20,VALID,1.82578,
2011-05-27, 03:26:04,VALID,1002.48,VALID,0,INVALID,163.655,VALID,0,VALID,25.045,VALID,7,VALID,2.04336,
2011-05-27, 03:27:04,VALID,1002.52,VALID,0,INVALID,163.678,VALID,0,VALID,25.0858,VALID,3,VALID,1.11055,
2011-05-27, 03:28:04,VALID,1002.5,VALID,0,INVALID,163.647,VALID,0,VALID,25.1053,VALID,9,VALID,1.53437,
2011-05-27, 03:29:04,VALID,1002.53,VALID,0,INVALID,163.685,VALID,0,VALID,25.1034,VALID,24,VALID,1.63203,
2011-05-27, 03:30:04,VALID,1002.53,VALID,0,INVALID,163.632,VALID,0,VALID,25.1637,VALID,21,VALID,2.51602,
2011-05-27, 03:31:04,VALID,1002.52,VALID,0,INVALID,163.67,VALID,0,VALID,25.2027,VALID,12,VALID,1.70703,
2011-05-27, 03:32:04,VALID,1002.57,VALID,0,INVALID,163.67,VALID,0,VALID,25.2007,VALID,354,VALID,1.77344,
2011-05-27, 03:33:04,VALID,1002.51,VALID,0,INVALID,163.662,VALID,0,VALID,25.2221,VALID,21,VALID,1.53359,
2011-05-27, 03:34:04,VALID,1002.54,VALID,0,INVALID,163.632,VALID,0,VALID,25.2202,VALID,16,VALID,2.13516,
2011-05-27, 03:35:04,VALID,1002.54,VALID,0,INVALID,163.632,VALID,0.100563,VALID,25.2611,VALID,13,VALID,2.05391,
2011-05-27, 03:36:04,VALID,1002.56,VALID,0,INVALID,163.67,VALID,0,VALID,25.2592,VALID,1,VALID,2.47891,
2011-05-27, 03:37:04,VALID,1002.57,VALID,0,INVALID,163.655,VALID,0,VALID,25.2981,VALID,7,VALID,1.64492,
2011-05-27, 03:38:04,VALID,1002.55,VALID,0,INVALID,163.601,VALID,0,VALID,25.3176,VALID,350,VALID,1.97773,
2011-05-27, 03:39:04,VALID,1002.56,VALID,0,INVALID,163.632,VALID,0,VALID,25.3565,VALID,13,VALID,1.86289,
2011-05-27, 03:40:04,VALID,1002.56,VALID,0,INVALID,163.647,VALID,0,VALID,25.339,VALID,3,VALID,1.7293,
2011-05-27, 03:41:04,VALID,1002.56,VALID,0,INVALID,163.655,VALID,0,VALID,25.3195,VALID,22,VALID,2.13789,
2011-05-27, 03:42:04,VALID,1002.56,VALID,0,INVALID,163.617,VALID,0,VALID,25.3176,VALID,8,VALID,3.55586,